Location: Poughquag
(41.6090°N, 73.6820°W)
Time: 04:03:29
(UTC-04:00)

ITUPSAT 1 - Pass Details

Date: 26 June 2024
Orbit: 695 x 705 km, 98.5° (Epoch: 24 July)

Event Time Altitude Azimuth Distance (km) Brightness Sun altitude
Rises 00:41:14 0° 352° (N) 3,107 ? -24.9°
Reaches altitude 10° 00:44:49 10° 324° (NW) 2,183 ? -25.0°
Maximum altitude 00:46:44 12° 300° (WNW) 2,018 ? -25.0°
Drops below altitude 10° 00:48:40 10° 276° (W) 2,177 ? -25.0°
Enters shadow 00:50:10 - 262° (W) 2,489 ? -25.0°
